Meteo Giornale » Osservazioni meteo Italia » Milano-Linate

ore: 01:20 - Osservazioni Meteo Milano-Linate
Lat. 45° 26' N Lon. 9° 17' E Alt. 107 metri s.l.m.

poco_nuvoloso Europe/Rome

23 °C

Poco Nuvoloso

Temp. 24 Ore

22 °C

34 °C

Nord-Est

9.3 Km/h

Dew point 18 °C

Umidità 73 %

Visibilità  10 Km

Il sole sorge alle ore 06:27

Il sole tramonta alle ore 20:24

Data e Ora Cielo e Fenomeni T °C DP °C Um. % Pres. hPa Vis. km Vento km/h
Oggi h: 01:20 poco_nuvoloso Poco Nuvoloso 23 18 73 1012 10 NE 9.3
Oggi h: 00:50 poco_nuvoloso Poco Nuvoloso 24 19 73 1013 10 NE 9.3
Oggi h: 00:20 nuvoloso Nuvoloso 23 19 78 1013 10 N 7.4
Ieri h: 23:50 nuvoloso Nuvoloso 23 18 73 1013 10 NE 7.4
Ieri h: 23:20 nuvoloso_temporali Temporale con Pioggia 24 19 73 1014 10 N 16.7
Ieri h: 22:50 molto_nuvoloso Molto Nuvoloso 27 17 54 1014 10 N 16.7
Ieri h: 22:20 molto_nuvoloso Molto Nuvoloso 27 16 50 1013 10 N 11.1
Ieri h: 21:50 molto_nuvoloso Molto Nuvoloso 28 16 48 1013 10 N 16.7
Ieri h: 21:20 molto_nuvoloso Molto Nuvoloso 29 17 48 1013 10 N 5.5
Ieri h: 20:50 molto_nuvoloso Molto Nuvoloso 30 17 45 1012 10 N 3.7
Ieri h: 20:20 sereno Sereno 31 16 40 1012 10 E/SE 9.3
Ieri h: 19:50 sereno Sereno 31 16 40 1013 10 E 7.4
Ieri h: 19:20 sereno Sereno 32 15 35 1012 10 SE 11.1
Ieri h: 18:50 sereno Sereno 33 14 31 1012 10 SE 7.4
Ieri h: 18:20 poco_nuvoloso Poco Nuvoloso 33 14 31 1013 10 SE 9.3
Ieri h: 17:50 poco_nuvoloso Poco Nuvoloso 33 14 31 1013 10 SE 7.4
Ieri h: 17:20 poco_nuvoloso Poco Nuvoloso 33 14 31 1013 10 SE 11.1
Ieri h: 16:50 poco_nuvoloso Poco Nuvoloso 34 14 30 1014 10 SE 9.3
Ieri h: 16:20 sereno Sereno 33 14 31 1014 10 SE 9.3
Ieri h: 15:50 poco_nuvoloso Poco Nuvoloso 34 14 30 1015 10 N 5.5
Ieri h: 15:20 sereno Sereno 33 14 31 1015 10 N 7.4
Ieri h: 14:50 sereno Sereno 33 13 29 1015 10 S/SE 11.1
Ieri h: 14:20 sereno Sereno 33 15 33 1016 10 E 9.3
Ieri h: 13:50 sereno Sereno 32 15 35 1016 10 SE 7.4
Ieri h: 13:20 sereno Sereno 32 15 35 1016 10 S/SE 7.4
Ieri h: 12:50 sereno Sereno 31 16 40 1017 10 S 7.4
Ieri h: 12:20 sereno Sereno 31 16 40 1017 10 N 7.4
Ieri h: 11:50 sereno Sereno 30 16 42 1017 10 SE 9.3
Ieri h: 11:20 poco_nuvoloso Poco Nuvoloso 29 17 48 1017 10 E/SE 11.1
Ieri h: 10:50 poco_nuvoloso Poco Nuvoloso 29 16 45 1018 10 N 3.7
Ieri h: 10:20 sereno Sereno 28 16 48 1018 10 N 3.7
Ieri h: 09:50 sereno Sereno 27 16 50 1018 10 N 1.8
Ieri h: 09:20 poco_nuvoloso Poco Nuvoloso 26 17 57 1018 10 N 3.7
Ieri h: 08:50 molto_nuvoloso Molto Nuvoloso 25 17 61 1017 10 N 3.7
Ieri h: 08:20 molto_nuvoloso Molto Nuvoloso 24 17 64 1017 10 N 3.7
Ieri h: 07:50 molto_nuvoloso Molto Nuvoloso 24 17 64 1017 10 N 0
Ieri h: 07:20 nuvoloso Nuvoloso 24 16 60 1017 10 N 5.5
Ieri h: 06:50 poco_nuvoloso Poco Nuvoloso 22 16 68 1017 10 N 1.8
Ieri h: 06:20 sereno Sereno 22 16 68 1017 10 N 3.7
Ieri h: 05:50 nuvoloso Nuvoloso 22 17 73 1017 10 N 0
Ieri h: 05:20 nuvoloso Nuvoloso 23 17 68 1017 10 N 0
Ieri h: 04:50 nuvoloso Nuvoloso 23 16 64 1017 10 N 5.5
Ieri h: 04:20 sereno Sereno 23 16 64 1017 10 NE 7.4
Ieri h: 03:50 sereno Sereno 23 17 68 1017 10 N 5.5
Ieri h: 03:20 sereno Sereno 23 17 68 1017 10 N 5.5
Ieri h: 02:50 sereno Sereno 24 17 64 1017 10 N 3.7
Ieri h: 02:20 sereno Sereno 24 17 64 1017 10 N 3.7
Ieri h: 01:50 sereno Sereno 24 17 64 1017 10 N 0